[[{"header":{"parameterUnit":"m.s-1","parameterCategory":1,"la1":30.2991,"la2":30.254,"lo1":-89.0895,"lo2":-89.0444,"dy":0.0017,"dx":0.0017,"nx":28,"ny":28,"refTime":"2024-03-29T09:00:00:Z","depth":0,"parameterNumber":2,"parameterNumberName":"U-component_of_WINDS"},"data":[0,0,0,0,0,0,0,0,0,0,0,0,0,0,0,0,0,0,0,0,0,0,0,0,0,0,0,0,0,0,0,0,0,0,0,0,0,0,0,0,0,0,0,0,0,0,0,0,0,0,0,0,0,0,0,0,0,0,-2.1306,-2.1306,0,-2.1294,-2.1294,-2.1294,-2.1265,-2.1264,-2.1264,-2.1263,-2.1251,-2.1252,-2.1252,0,0,0,0,0,0,0,0,0,0,0,0,0,-2.1304,-2.1304,-2.1306,-2.1306,-2.1306,-2.1294,-2.1294,-2.1294,-2.1265,-2.1264,-2.1264,-2.1263,-2.1251,-2.1252,-2.1252,0,0,0,0,0,0,0,0,0,0,0,0,0,-2.13,-2.1304,-2.1306,-2.129,-2.1288,-2.1294,-2.1294,-2.1294,-2.1265,-2.1264,-2.1263,-2.1263,-2.1251,-2.1252,-2.1252,-2.1273,0,0,-2.1253,-2.1253,0,0,0,0,0,0,0,0,-2.13,-2.13,-2.1292,-2.1291,-2.1289,-2.128,-2.1289,-2.1287,-2.1265,-2.1274,-2.1263,-2.1262,-2.1262,-2.1261,-2.1261,-2.1272,-2.1271,-2.1253,-2.1253,-2.1254,-2.1254,0,0,0,0,0,0,0,-2.13,-2.13,-2.1301,-2.1292,-2.129,-2.1283,-2.1282,-2.1288,-2.1273,-2.1273,-2.1271,-2.127,-2.1261,-2.1261,-2.126,-2.1271,-2.1253,-2.1254,-2.1254,-2.1254,-2.1298,-2.1299,0,0,0,0,0,0,-2.1303,-2.1301,-2.1302,-2.1301,-2.1292,-2.1284,-2.1282,-2.1284,-2.1273,-2.127,-2.1271,-2.1269,-2.126,-2.126,-2.126,-2.1282,-2.1254,-2.1254,-2.1254,-2.1297,-2.1298,-2.1299,0,0,0,0,0,0,-2.1303,-2.1303,-2.1302,-2.13,-2.1299,-2.1285,-2.1287,-2.1284,-2.1284,-2.1271,-2.1268,-2.1274,-2.126,-2.1259,-2.1269,-2.1281,-2.1254,-2.1254,-2.1296,-2.1297,-2.1298,-2.1327,0,0,0,0,0,0,-2.1303,-2.1303,-2.1311,-2.1301,-2.13,-2.1312,-2.1288,-2.1285,-2.1285,-2.1282,-2.1273,-2.1271,-2.1259,-2.1269,-2.127,-2.1281,-2.1255,-2.1294,-2.1296,-2.1298,-2.1325,-2.133,-2.1333,0,0,0,0,0,-2.1303,-2.132,-2.1311,-2.1312,-2.1309,-2.1312,-2.1312,-2.1298,-2.1286,-2.1293,-2.1285,-2.1271,-2.128,-2.127,-2.1271,-2.1283,-2.1294,-2.1296,-2.1298,-2.1323,-2.1329,-2.1333,0,0,0,0,0,0,-2.1332,-2.1318,-2.1309,-2.1323,-2.1319,-2.1307,-2.1316,-2.1304,-2.1304,-2.1301,-2.1284,-2.1283,-2.1295,-2.129,-2.1279,-2.1302,-2.1285,-2.1287,-2.1304,-2.1309,-2.1313,-2.1313,-2.1255,0,0,0,0,0,-2.134,-2.1344,-2.1332,-2.1345,-2.1344,-2.1331,-2.1332,-2.1321,-2.1317,-2.1315,-2.1308,-2.1304,-2.1306,-2.1307,-2.1309,-2.1325,-2.1322,-2.1334,-2.1338,-2.1341,-2.1343,-2.135,-2.1355,-2.1306,-2.1306,-2.1306,0,0,-2.1357,-2.135,-2.1353,-2.1351,-2.1347,-2.1351,-2.1329,-2.1335,-2.1338,-2.1316,-2.1324,-2.1319,-2.1314,-2.1327,-2.1332,-2.1323,-2.1356,-2.1344,-2.1347,-2.1346,-2.1353,-2.1357,-2.1361,-2.1307,-2.1307,-2.1307,0,0,-2.1388,-2.1384,-2.1394,-2.1391,-2.1385,-2.1376,-2.1378,-2.1369,-2.1364,-2.1372,-2.1356,-2.1359,-2.1364,-2.136,-2.1359,-2.139,-2.1377,-2.1391,-2.1411,-2.1419,-2.1423,-2.1426,-2.1436,-2.144,-2.1393,-2.1393,-2.1393,0,-2.141,-2.1415,-2.1401,-2.1407,-2.1407,-2.1387,-2.1397,-2.1395,-2.139,-2.1389,-2.138,-2.1384,-2.1379,-2.1391,-2.1398,-2.1399,-2.14,-2.1391,-2.1423,-2.1426,-2.1429,-2.1438,-2.1442,-2.1395,-2.1395,-2.1395,-2.1394,0,-2.1441,-2.1445,-2.1454,-2.1449,-2.145,-2.1458,-2.1445,-2.1448,-2.1438,-2.143,-2.1438,-2.1432,-2.1431,-2.1434,-2.1424,-2.1444,-2.1438,-2.1426,-2.1408,-2.1436,-2.1444,-2.1447,-2.1397,-2.1397,-2.1396,-2.1396,0,0,-2.1489,-2.1477,-2.148,-2.1477,-2.147,-2.1473,-2.148,-2.1479,-2.1481,-2.1479,-2.1484,-2.1488,-2.1477,-2.1476,-2.1466,-2.1473,-2.1496,-2.146,-2.1459,-2.1465,-2.1516,-2.1523,-2.1528,-2.1488,-2.1489,-2.1489,-2.1516,0,-2.1518,-2.153,-2.1517,-2.1531,-2.1535,-2.1517,-2.1523,-2.1519,-2.1512,-2.1514,-2.1507,-2.1509,-2.1495,-2.1494,-2.15,-2.1492,-2.1506,-2.149,-2.1492,-2.1492,-2.1492,-2.1532,-2.154,-2.1566,-2.1519,-2.1519,-2.152,0,-2.1553,-2.1551,-2.1566,-2.1556,-2.1557,-2.1563,-2.1561,-2.1564,-2.1559,-2.1553,-2.1552,-2.154,-2.1547,-2.1531,-2.1539,-2.1529,-2.1529,-2.1526,-2.1526,-2.1524,-2.1506,-2.153,-2.1573,-2.1577,-2.1525,-2.1525,-2.1524,0,-2.1585,-2.1587,-2.1595,-2.1594,-2.1584,-2.1588,-2.1584,-2.1579,-2.1579,-2.1577,-2.1577,-2.1577,-2.1576,-2.1576,-2.1564,-2.1554,-2.1573,-2.1557,-2.1568,-2.1568,-2.1572,-2.1571,-2.1614,-2.1575,-2.1575,-2.1575,-2.1575,0,-2.1617,-2.1626,-2.1609,-2.1614,-2.1624,-2.161,-2.162,-2.1614,-2.1609,-2.1613,-2.1598,-2.1602,-2.1587,-2.1589,-2.158,-2.1588,-2.1588,-2.1583,-2.158,-2.1583,-2.1584,-2.1582,-2.1579,-2.1576,-2.1576,-2.1575,-2.1575,0,-2.1654,-2.1643,-2.1651,-2.1641,-2.1639,-2.1646,-2.1637,-2.1642,-2.1634,-2.1639,-2.1639,-2.1627,-2.1629,-2.1618,-2.1617,-2.1611,-2.1623,-2.1618,-2.1624,-2.1622,-2.1633,-2.1632,-2.1675,-2.1679,-2.1639,-2.1639,-2.164,0,-2.1674,-2.168,-2.1671,-2.1672,-2.1669,-2.1672,-2.1671,-2.1658,-2.1659,-2.1654,-2.1659,-2.1659,-2.1658,-2.1662,-2.1653,-2.1653,-2.1647,-2.1662,-2.1646,-2.1649,-2.1645,-2.1644,-2.1644,-2.1665,-2.1665,-2.1665,-2.1666,0,-2.1711,-2.1705,-2.1706,-2.1704,-2.1705,-2.1703,-2.17,-2.1702,-2.1688,-2.169,-2.1691,-2.1691,-2.169,-2.169,-2.1688,-2.1684,-2.1672,-2.1671,-2.1673,-2.1676,-2.1678,-2.1676,-2.1631,-2.167,-2.1669,-2.1669,-2.1669,-2.1669,-2.1739,-2.1744,-2.1738,-2.1738,-2.1735,-2.1733,-2.1736,-2.1729,-2.173,-2.1728,-2.1721,-2.1723,-2.1718,-2.1714,-2.1711,-2.1713,-2.1705,-2.1709,-2.171,-2.171,-2.1712,-2.168,-2.1713,-2.1712,-2.1712,-2.1712,-2.1712,0,-2.1774,-2.1769,-2.177,-2.1767,-2.1768,-2.1757,-2.1754,-2.1755,-2.1757,-2.1753,-2.1753,-2.1754,-2.1755,-2.1746,-2.1745,-2.1748,-2.1743,-2.1748,-2.1747,-2.1746,-2.1719,-2.1716,-2.1752,-2.1752,-2.1752,-2.1752,-2.1752,-2.1752,-2.1792,-2.1799,-2.1793,-2.1798,-2.1793,-2.1795,-2.1794,-2.1792,-2.1788,-2.179,-2.1791,-2.1785,-2.1779,-2.1778,-2.1777,-2.1775,-2.1774,-2.1782,-2.1777,-2.1752,-2.1748,-2.1744,-2.1741,-2.1782,-2.1782,-2.1803,-2.1804,-2.1804]},{"header":{"parameterUnit":"m.s-1","parameterCategory":1,"la1":30.2991,"la2":30.254,"lo1":-89.0895,"lo2":-89.0444,"dy":0.0017,"dx":0.0017,"nx":28,"ny":28,"refTime":"2024-03-29T09:00:00:Z","depth":0,"parameterNumber":3,"parameterNumberName":"V-component_of_WINDS"},"data":[0,0,0,0,0,0,0,0,0,0,0,0,0,0,0,0,0,0,0,0,0,0,0,0,0,0,0,0,0,0,0,0,0,0,0,0,0,0,0,0,0,0,0,0,0,0,0,0,0,0,0,0,0,0,0,0,0,0,3.6889,3.6889,0,3.6959,3.696,3.6961,3.697,3.697,3.6969,3.6968,3.7041,3.7043,3.7046,0,0,0,0,0,0,0,0,0,0,0,0,0,3.6764,3.6766,3.6889,3.689,3.689,3.6959,3.696,3.6961,3.697,3.697,3.6969,3.6968,3.704,3.7043,3.7046,0,0,0,0,0,0,0,0,0,0,0,0,0,3.6825,3.6767,3.6889,3.6903,3.6905,3.6959,3.696,3.6961,3.6971,3.697,3.6969,3.6968,3.7039,3.7043,3.7047,3.709,0,0,3.7058,3.706,0,0,0,0,0,0,0,0,3.6821,3.6829,3.69,3.6902,3.6905,3.6955,3.6943,3.7005,3.6971,3.6946,3.6968,3.6967,3.7013,3.7019,3.7035,3.7094,3.7097,3.7059,3.7061,3.7063,3.7064,0,0,0,0,0,0,0,3.6817,3.6826,3.6917,3.6901,3.6904,3.6907,3.6915,3.6955,3.6984,3.6948,3.6949,3.6957,3.7014,3.7031,3.7036,3.7098,3.7058,3.7062,3.7064,3.7066,3.72,3.7201,0,0,0,0,0,0,3.681,3.6823,3.6914,3.6919,3.686,3.691,3.6919,3.694,3.6984,3.699,3.6958,3.6957,3.7025,3.7032,3.7039,3.7095,3.7063,3.7066,3.7068,3.7199,3.72,3.7202,0,0,0,0,0,0,3.6807,3.6818,3.6912,3.6871,3.6883,3.6913,3.6937,3.6942,3.6958,3.6991,3.6997,3.6969,3.7024,3.7033,3.7078,3.7098,3.7068,3.7071,3.7197,3.7199,3.7201,3.7206,0,0,0,0,0,0,3.6803,3.6817,3.6833,3.6871,3.6885,3.6949,3.6938,3.6944,3.6965,3.6965,3.7003,3.7009,3.7024,3.7072,3.7082,3.7102,3.7074,3.7196,3.7198,3.72,3.7204,3.7208,3.7211,0,0,0,0,0,3.6799,3.6831,3.6834,3.6845,3.6906,3.695,3.6958,3.6975,3.6966,3.6984,3.7005,3.7008,3.7094,3.7077,3.7088,3.7109,3.7195,3.7197,3.72,3.7203,3.7207,3.7211,0,0,0,0,0,0,3.6794,3.6836,3.684,3.6885,3.6914,3.6951,3.6973,3.6979,3.701,3.7009,3.7029,3.7037,3.7082,3.71,3.708,3.7156,3.7144,3.7149,3.7142,3.7146,3.715,3.7144,3.7078,0,0,0,0,0,3.6798,3.683,3.6865,3.6902,3.6916,3.6943,3.6962,3.6973,3.7004,3.7016,3.7041,3.707,3.7105,3.7127,3.716,3.7208,3.7217,3.7228,3.7231,3.7234,3.7238,3.7267,3.7273,3.7211,3.7211,3.7211,0,0,3.6807,3.6834,3.6853,3.6902,3.6925,3.6959,3.6953,3.6987,3.7013,3.7021,3.7065,3.7085,3.712,3.7167,3.7189,3.7184,3.7258,3.7238,3.7239,3.7242,3.7271,3.7277,3.7282,3.7213,3.7213,3.7212,0,0,3.684,3.6863,3.6897,3.6922,3.6958,3.6976,3.6984,3.7022,3.7035,3.708,3.7088,3.7118,3.7176,3.7201,3.7222,3.7268,3.7272,3.7278,3.7295,3.7324,3.7328,3.7333,3.7351,3.7357,3.7282,3.7282,3.7282,0,3.6846,3.6896,3.6914,3.695,3.6972,3.6982,3.7018,3.7041,3.7086,3.7101,3.7095,3.7169,3.7193,3.7248,3.7259,3.7275,3.7286,3.7273,3.7326,3.7331,3.7335,3.7353,3.7359,3.7283,3.7283,3.7283,3.7283,0,3.6903,3.6938,3.6962,3.7006,3.7031,3.7066,3.709,3.7114,3.7123,3.7142,3.7189,3.7218,3.7259,3.7272,3.7281,3.7329,3.7325,3.7322,3.731,3.7342,3.7358,3.7365,3.7284,3.7284,3.7283,3.7283,0,0,3.6933,3.6989,3.6997,3.7019,3.7061,3.7088,3.7125,3.7165,3.7185,3.7217,3.7249,3.7299,3.7298,3.7321,3.7334,3.7358,3.7395,3.7353,3.7354,3.7361,3.7452,3.7454,3.7461,3.7398,3.74,3.7401,3.7449,0,3.6972,3.7038,3.7056,3.7112,3.7145,3.7157,3.7189,3.7219,3.7239,3.727,3.7292,3.7328,3.7322,3.7337,3.7362,3.7385,3.7414,3.7382,3.743,3.7431,3.7421,3.7469,3.7471,3.7515,3.7455,3.7457,3.7457,0,3.7026,3.7059,3.7119,3.7159,3.7173,3.7202,3.7242,3.7272,3.7307,3.7319,3.7347,3.7357,3.7398,3.7384,3.7441,3.7419,3.744,3.7455,3.7457,3.7462,3.7446,3.7477,3.7529,3.7536,3.7468,3.7467,3.7466,0,3.7044,3.7104,3.7147,3.7165,3.7212,3.7233,3.7254,3.7288,3.7311,3.7346,3.7362,3.7401,3.7422,3.7453,3.7475,3.7463,3.753,3.7518,3.7543,3.7542,3.7556,3.7555,3.7614,3.7569,3.7569,3.7569,3.7568,0,3.7085,3.7121,3.7156,3.7183,3.7225,3.7246,3.7287,3.7309,3.7339,3.7372,3.7384,3.7414,3.7441,3.7475,3.7492,3.7538,3.7547,3.7559,3.7563,3.7558,3.7557,3.7572,3.757,3.757,3.757,3.757,3.7569,0,3.7111,3.7136,3.7185,3.7227,3.7238,3.7267,3.7303,3.7331,3.7351,3.7392,3.7403,3.7435,3.7477,3.7501,3.7553,3.7565,3.7616,3.7618,3.7604,3.7606,3.763,3.7627,3.77,3.7712,3.7659,3.7659,3.7659,0,3.7136,3.7165,3.721,3.7233,3.7254,3.729,3.7315,3.7338,3.7364,3.7408,3.743,3.7472,3.7507,3.7573,3.7601,3.7642,3.7646,3.7669,3.7652,3.7647,3.7648,3.7646,3.765,3.7672,3.7672,3.7672,3.7673,0,3.7179,3.719,3.7225,3.7266,3.7295,3.7328,3.736,3.7378,3.7408,3.7436,3.7478,3.7506,3.756,3.7602,3.7645,3.7668,3.7676,3.7678,3.7686,3.7681,3.7672,3.7679,3.7612,3.7676,3.7676,3.7675,3.7675,3.7675,3.7206,3.7233,3.7269,3.7309,3.7336,3.7367,3.7395,3.742,3.7456,3.7502,3.7514,3.7559,3.7596,3.7655,3.7679,3.7716,3.7712,3.7723,3.7726,3.7729,3.773,3.7666,3.7723,3.7723,3.7723,3.7723,3.7723,0,3.725,3.7275,3.7311,3.7357,3.7388,3.7394,3.7431,3.7457,3.7496,3.753,3.7565,3.7615,3.7657,3.769,3.7733,3.7756,3.7761,3.7767,3.7765,3.7771,3.773,3.7719,3.7762,3.7762,3.7762,3.7762,3.7762,3.7762,3.7277,3.7322,3.7339,3.7399,3.7424,3.7468,3.7489,3.7518,3.7546,3.7601,3.7636,3.7658,3.7692,3.7738,3.7777,3.7786,3.7802,3.7807,3.7817,3.7778,3.7774,3.7769,3.7759,3.781,3.781,3.7855,3.7855,3.7855]}]]